(52186) = 1998 FF6 = 4072 T-2

Discovered at Palomar on 1973-09-29 by C. J. van Houten, I. van Houten-Groeneveld, and T. Gehrels.

Orbit

Orbit type: Main Belt

Note: WebGL enabled browser required.

epoch2024-03-31.0
epoch JD2460400.5
perihelion date2021-11-04.04282
perihelion JD2459522.54282
argument of perihelion (°)284.55686
ascending node (°)34.20965
inclination (°)4.65551
eccentricity0.1889865
perihelion distance (AU)1.7706612
Tisserand w.r.t. Jupiter3.7
ΔV w.r.t. Earth (km/sec)8.3
semimajor axis (AU)2.1832695
mean anomaly (°)268.23543
mean daily motion (°/day)0.30552220
aphelion distance (AU)2.596
period (years)3.23
P-vector [x]0.75023439
P-vector [y]-0.57106714
P-vector [z]-0.33321266
Q-vector [x]0.65959535
Q-vector [y]0.68123000
Q-vector [z]0.31758410
absolute magnitude16.83
phase slope0.15
uncertainty0
referenceMPEC 2024-F07
observations used1426
oppositions19
arc length (days)18440
first opposition used1973
last opposition used2024
residual rms (arc-secs)0.54
perturbers coarse indicatorM-v
perturbers precise indicator003Ek
first observation date used1973-09-20.0
last observation date used2024-03-16.0
computer nameMPCLINUX
JD of orbit computation2456847.660719
perihelion JD uncertainty (days)5.3349E-05
argument of perihelion uncertainty (°)4.1653E-05
ascending node uncertainty (°)3.9369E-05
inclination uncertainty (°)4.5051E-06
eccentricity uncertainty 3.3090E-08
perihelion distance uncertainty (AU)7.2739E-08
Minimum Orbit Intersection Distances (in AU)
for orbit epoch: 2460400.5, reference: E2024-GB3
Mercury1.34413
Venus1.04291
Earth0.76471
Mars0.38771
Jupiter2.70012
Saturn6.54681
Uranus15.8797
Neptune27.5885

Observations

1490 total observations over interval: 1973 09 19.22500 – 2024 03 16.570397
These data are available for download (format description).

Date (UT) J2000 RA J2000 Dec Magn Location Ref
1973 09 19.22500 00 36 01.85 -02 08 08.5   675 – Palomar Mountain MPS 805
1973 09 19.27865 00 35 58.45 -02 08 16.9   675 – Palomar Mountain MPS 805
1973 09 20.30278 00 34 57.40 -02 10 58.4   675 – Palomar Mountain MPS 805
1973 09 24.38750 00 30 47.32 -02 21 28.1   675 – Palomar Mountain MPS 805
1973 09 24.45434 00 30 42.88 -02 21 38.8   675 – Palomar Mountain MPS 805
1973 09 25.28125 00 29 52.15 -02 23 41.6   675 – Palomar Mountain MPS 805
1973 09 25.34601 00 29 47.76 -02 23 50.1   675 – Palomar Mountain MPS 805
1973 09 29.29219 00 25 41.43 -02 32 44.8 18.9   675 – Palomar Mountain MPS 805
1973 09 29.35694 00 25 37.26 -02 32 52.6   675 – Palomar Mountain MPS 805
1973 09 30.24826 00 24 42.29 -02 34 41.4   675 – Palomar Mountain MPS 805
1973 09 30.31476 00 24 38.03 -02 34 49.9   675 – Palomar Mountain MPS 805
1973 10 04.32708 00 20 33.97 -02 41 43.2   675 – Palomar Mountain MPS 805
1973 10 04.38889 00 20 30.25 -02 41 48.4   675 – Palomar Mountain MPS 805
1973 10 05.34167 00 19 34.34 -02 43 10.8   675 – Palomar Mountain MPS 35016
1973 10 05.35382 00 19 33.41 -02 43 10.3   675 – Palomar Mountain MPS 805
1973 10 05.40347 00 19 30.66 -02 43 16.2   675 – Palomar Mountain MPS 35016
1973 10 05.41597 00 19 29.60 -02 43 15.5   675 – Palomar Mountain MPS 805
1991 02 05.31784 08 49 42.36 +25 27 44.8 22.2 V 691 – Steward Observatory, Kitt Peak-Spacewatch MPS 79379
1991 02 05.34079 08 49 40.70 +25 27 49.6 21.5 V 691 – Steward Observatory, Kitt Peak-Spacewatch MPS 79379
1991 02 05.36375 08 49 39.08 +25 27 54.6 21.5 V 691 – Steward Observatory, Kitt Peak-Spacewatch MPS 79379
1998 03 18.46045 12 39 30.54 +00 00 29.3 19.7 V 691 – Steward Observatory, Kitt Peak-Spacewatch MPS 710
1998 03 18.48227 12 39 29.19 +00 00 35.9 20.0 V 691 – Steward Observatory, Kitt Peak-Spacewatch MPS 710
1998 03 18.50321 12 39 27.94 +00 00 42.4 20.2 V 691 – Steward Observatory, Kitt Peak-Spacewatch MPS 710
1998 03 25.31737 12 32 28.43 +00 35 41.2 19.8 V 691 – Steward Observatory, Kitt Peak-Spacewatch MPS 710
1998 03 25.33834 12 32 27.05 +00 35 47.5 19.8 V 691 – Steward Observatory, Kitt Peak-Spacewatch MPS 710
1998 03 25.36020 12 32 25.61 +00 35 54.3 19.9 V 691 – Steward Observatory, Kitt Peak-Spacewatch MPS 710
1999 10 03.44358 03 27 35.56 +18 44 58.5 19.8 R 703 – Catalina Sky Survey MPS 6969
1999 10 03.45311 03 27 35.25 +18 44 59.7 19.7 R 703 – Catalina Sky Survey MPS 6969
1999 10 03.46258 03 27 34.99 +18 45 00.9 19.1 R 703 – Catalina Sky Survey MPS 6969
1999 10 03.47215 03 27 34.79 +18 45 01.2 19.1 R 703 – Catalina Sky Survey MPS 6969
1999 10 10.28157 03 24 06.49 +18 53 45.3 19.7   704 – Lincoln Laboratory ETS, New Mexico MPS 12903
1999 10 10.29676 03 24 05.85 +18 53 47.6 19.9   704 – Lincoln Laboratory ETS, New Mexico MPS 12903
1999 10 10.31230 03 24 05.18 +18 53 48.4 19.6   704 – Lincoln Laboratory ETS, New Mexico MPS 12903
1999 10 10.32756 03 24 04.55 +18 53 49.4 19.7   704 – Lincoln Laboratory ETS, New Mexico MPS 12903
1999 10 10.34359 03 24 03.90 +18 53 49.8 19.3   704 – Lincoln Laboratory ETS, New Mexico MPS 12903
1999 11 04.31922 02 58 59.01 +18 37 59.4 18.5   704 – Lincoln Laboratory ETS, New Mexico MPS 7522
1999 11 04.33531 02 58 57.81 +18 37 57.5 19.3   704 – Lincoln Laboratory ETS, New Mexico MPS 7522
1999 11 04.35146 02 58 56.57 +18 37 55.0 19.2   704 – Lincoln Laboratory ETS, New Mexico MPS 7522
1999 11 04.36757 02 58 55.35 +18 37 53.4 19.5   704 – Lincoln Laboratory ETS, New Mexico MPS 7522
1999 11 04.38365 02 58 54.12 +18 37 51.8 19.0   704 – Lincoln Laboratory ETS, New Mexico MPS 7522
1999 11 14.21052 02 47 08.00 +18 16 10.3 18.4   704 – Lincoln Laboratory ETS, New Mexico MPS 7522
1999 11 14.22526 02 47 06.84 +18 16 09.4 18.9   704 – Lincoln Laboratory ETS, New Mexico MPS 7522
1999 11 14.23999 02 47 05.82 +18 16 08.0 19.0   704 – Lincoln Laboratory ETS, New Mexico MPS 7522
1999 11 14.25471 02 47 04.88 +18 16 05.3 19.2   704 – Lincoln Laboratory ETS, New Mexico MPS 7522
1999 11 14.26920 02 47 03.67 +18 16 04.0 19.8   704 – Lincoln Laboratory ETS, New Mexico MPS 7522
1999 11 16.23015 02 44 50.58 +18 11 25.4 19.0   704 – Lincoln Laboratory ETS, New Mexico MPS 7522
1999 11 16.25866 02 44 48.63 +18 11 21.2 19.0   704 – Lincoln Laboratory ETS, New Mexico MPS 7522
1999 11 16.27287 02 44 47.69 +18 11 18.9 18.9   704 – Lincoln Laboratory ETS, New Mexico MPS 7522
1999 12 04.17340 02 29 00.31 +17 36 01.3 19.6 R 703 – Catalina Sky Survey MPS 8094
1999 12 04.18557 02 28 59.89 +17 35 58.4 19.7 R 703 – Catalina Sky Survey MPS 8094
1999 12 04.19766 02 28 59.50 +17 35 56.8 19.6 R 703 – Catalina Sky Survey MPS 8094
1999 12 04.20980 02 28 58.96 +17 35 55.3 19.7 R 703 – Catalina Sky Survey MPS 8094
2002 09 05.27457 00 10 35.53 -06 37 18.7 17.6   704 – Lincoln Laboratory ETS, New Mexico MPS 61839
2002 09 05.28891 00 10 34.77 -06 37 21.0 18.3   704 – Lincoln Laboratory ETS, New Mexico MPS 61839
2002 09 05.30473 00 10 33.93 -06 37 23.8 18.4   704 – Lincoln Laboratory ETS, New Mexico MPS 61839
2002 09 05.31920 00 10 33.12 -06 37 26.6 18.3   704 – Lincoln Laboratory ETS, New Mexico MPS 61839
2002 09 05.33386 00 10 32.35 -06 37 28.8 18.1   704 – Lincoln Laboratory ETS, New Mexico MPS 61839
2002 09 06.27179 00 09 45.04 -06 40 10.4 17.9   704 – Lincoln Laboratory ETS, New Mexico MPS 61839
2002 09 06.28601 00 09 44.24 -06 40 13.0 18.2   704 – Lincoln Laboratory ETS, New Mexico MPS 61839
2002 09 06.30079 00 09 43.41 -06 40 15.4 18.1   704 – Lincoln Laboratory ETS, New Mexico MPS 61839
2002 09 06.31494 00 09 42.56 -06 40 17.6 18.0   704 – Lincoln Laboratory ETS, New Mexico MPS 61839
2002 09 06.32913 00 09 41.89 -06 40 20.0 17.9   704 – Lincoln Laboratory ETS, New Mexico MPS 61839
2002 09 15.53199 00 01 02.98 -07 05 45.0 18.6   608 – Haleakala-AMOS MPS 64287
2002 09 15.54260 00 01 02.32 -07 05 46.7 18.7   608 – Haleakala-AMOS MPS 64287
2002 09 15.55346 00 01 01.62 -07 05 48.3 18.7   608 – Haleakala-AMOS MPS 64287
2002 09 16.46544 00 00 06.99 -07 08 04.9 17.7   644 – Palomar Mountain/NEAT MPS 64287
2002 09 16.47703 00 00 06.26 -07 08 06.5 17.9   644 – Palomar Mountain/NEAT MPS 64287
2002 09 16.48758 00 00 05.60 -07 08 08.0 17.7   644 – Palomar Mountain/NEAT MPS 64287
2002 09 28.36310 23 48 23.11 -07 27 55.7 18.8   608 – Haleakala-AMOS MPS 64287
2002 09 28.37380 23 48 22.46 -07 27 55.9 18.6   608 – Haleakala-AMOS MPS 64287
2002 09 28.38488 23 48 21.81 -07 27 56.5 18.7   608 – Haleakala-AMOS MPS 64287
2002 10 01.17970 23 45 50.16 -07 29 24.1 17.9 R 699 – Lowell Observatory-LONEOS MPS 64287
2002 10 01.19723 23 45 49.20 -07 29 25.2   699 – Lowell Observatory-LONEOS MPS 64287
2002 10 01.21481 23 45 48.26 -07 29 25.2   699 – Lowell Observatory-LONEOS MPS 64287
2002 10 01.23234 23 45 47.23 -07 29 25.4   699 – Lowell Observatory-LONEOS MPS 64287
2002 10 03.18132 23 44 07.05 -07 29 33.6 18.0   704 – Lincoln Laboratory ETS, New Mexico MPS 64287
2002 10 03.19626 23 44 06.29 -07 29 33.4 18.1   704 – Lincoln Laboratory ETS, New Mexico MPS 64287
2002 10 03.21169 23 44 05.49 -07 29 33.6 18.0   704 – Lincoln Laboratory ETS, New Mexico MPS 64287
2002 10 03.22756 23 44 04.61 -07 29 33.8 18.1   704 – Lincoln Laboratory ETS, New Mexico MPS 64287
2002 10 03.24262 23 44 03.83 -07 29 33.8 17.8   704 – Lincoln Laboratory ETS, New Mexico MPS 64287
2002 10 06.24428 23 41 40.02 -07 28 16.4 17.9   704 – Lincoln Laboratory ETS, New Mexico MPS 64287
2002 10 06.25935 23 41 39.24 -07 28 15.9 18.7   704 – Lincoln Laboratory ETS, New Mexico MPS 64287
2002 10 06.27408 23 41 38.49 -07 28 14.4 19.0   704 – Lincoln Laboratory ETS, New Mexico MPS 64287
2002 10 06.28864 23 41 37.83 -07 28 14.4 18.1   704 – Lincoln Laboratory ETS, New Mexico MPS 64287
2002 10 06.30350 23 41 37.15 -07 28 13.4 18.5   704 – Lincoln Laboratory ETS, New Mexico MPS 64287
2002 10 11.17619 23 38 17.01 -07 22 13.3 18.6   704 – Lincoln Laboratory ETS, New Mexico MPS 64287
2002 10 11.19122 23 38 16.41 -07 22 11.9 18.4   704 – Lincoln Laboratory ETS, New Mexico MPS 64287
2002 10 11.20606 23 38 15.82 -07 22 10.4 18.4   704 – Lincoln Laboratory ETS, New Mexico MPS 64287
2002 10 11.22116 23 38 15.22 -07 22 09.1 18.5   704 – Lincoln Laboratory ETS, New Mexico MPS 64287
